Weather in Vata

Russia / Khanty-Mansi Autonomous Okrug — Yugra     61°05′20″N   75°49′03″E
temp.,
°C
wind,
m/s
gust,
m/s
humid.,
%
clouds,
%
prec.,
mm/h
press.,
hPa
HPBL,
m
6 march, sat
sat623:00−11ssw339579 0.0 99823
02:00−10sse3396100 0.1 99743
05:00−9sse3596100 1.1 997162
08:00−10sse3496100 0.4 996138
11:00−8ssw1290100 0.5 995249
14:00−7nw1188100 0.0 995281
17:00−9nw2393100 0.1 99526
20:00−11w449696 0.1 99662
7 march, sun
sun723:00−10wnw349694 0.1 99886
02:00−13wnw469695 0.1 999109
05:00−14w349695 0.3 100265
08:00−15w359687 0.1 1004116
11:00−12w469191 0.1 1007363
14:00−9w3688100 0.1 1009649
17:00−11wsw129699 0.3 101081
20:00−15sw349697 0.2 101125
8 march, mon
mon823:00−18ssw3310076 0.2 101121
02:00−18sse239886 0.0 101022
05:00−17ese449693 0.0 100755
08:00−15e5894100 0.0 1003242
11:00−12ne71094100 0.9 998366
14:00−10nne6893100 1.5 995668
17:00−11nnw81193100 2.8 996564
20:00−14nw8129296 0.2 1000329
9 march, tue
tue923:00−19wnw7129693 0.2 1004212
02:00−23w589793 0.0 1007102
05:00−26wsw459860 0.0 101044
08:00−24wsw349698 0.0 101192
11:00−20wsw239099 0.0 1012296
14:00−15se248599 0.0 1012435
17:00−16e569799 0.1 1010120
20:00−12ese6995100 0.5 1007362
10 march, wed
wed1023:00−10se4895100 1.3 1005236
02:00−11sse3595100 0.1 100292
05:00−10se3696100 0.8 999219
08:00−9se3495100 1.4 998200
11:00−7w3492100 2.1 1000425
14:00−8nw6691100 0.3 1003442
17:00−16wnw589697 0.4 1005190
20:00−23nw349986 0.0 100727